Weather History for Chamberlain, SD

Change the Weather History Date:

Friday, February 15, 2013

  Actual Average Record
Temperature  
Mean Temperature 18 °F -  
Max Temperature 26 °F 35 °F 60 °F (2011)
Min Temperature 10 °F 15 °F -18 °F (2007)
Degree Days  
Heating Degree Days 47    
Moisture  
Dew Point 13 °F    
Average Humidity 76    
Maximum Humidity 85    
Minimum Humidity 62    
Precipitation  
Precipitation 0.01 in - - ()
Sea Level Pressure  
Sea Level Pressure 30.38 in    
Wind  
Wind Speed 8 mph (WNW)    
Max Wind Speed 18 mph    
Max Gust Speed 23 mph    
Averages and records for this station are not official NWS values.
T = Trace of Precipitation, MM = Missing Value Source: NWS Daily Summary

Daily Weather History Graph

Daily Weather History Graph

Search for Another Location

Airport:

Trip Planner

Search our weather history database for the weather conditions in past years. The results will help you decide how hot, cold, wet, or windy it might be!

Date:

Astronomy

Feb. 15, 2013 Rise Set
Actual Time 7:35 AM CST 6:07 PM CST
Civil Twilight 7:06 AM CST 6:37 PM CST
Nautical Twilight 6:32 AM CST 7:10 PM CST
Astronomical Twilight 5:59 AM CST 7:44 PM CST
Moon 9:59 AM CST (2/15) No Moon Set
Length of Visible Light 11h 31m
Length of Day
10h 32m
Waxing Crescent, 30% of the Moon is Illuminated
Feb 15
Waxing Crescent
Feb 17
First Quarter
Feb 25
Full
Mar 4
Last Quarter
Mar 11
New

Hourly Weather History & Observations

Time (CST) Temp. Windchill Dew Point Humidity Pressure Visibility Wind Dir Wind Speed Gust Speed Precip Events Conditions
12:52 AM 18.0 °F 11.1 °F 10.9 °F 74% 30.37 in - NW 4.6 mph - N/A   Unknown
1:52 AM 19.0 °F 9.0 °F 12.0 °F 74% 30.38 in - West 8.1 mph - N/A   Unknown
2:52 AM 19.9 °F - 12.9 °F 74% 30.37 in - Calm Calm - N/A   Unknown
3:52 AM 19.0 °F 12.3 °F 14.0 °F 81% 30.35 in - SSW 4.6 mph - N/A   Unknown
4:52 AM 19.9 °F 11.1 °F 16.0 °F 85% 30.34 in - South 6.9 mph - N/A   Unknown
5:52 AM 21.9 °F 10.4 °F 15.1 °F 75% 30.33 in - SW 11.5 mph - N/A   Unknown
6:52 AM 21.9 °F 9.8 °F 17.1 °F 82% 30.32 in - SW 12.7 mph - N/A   Unknown
7:52 AM 23.0 °F 13.9 °F 17.1 °F 78% 30.33 in - WNW 8.1 mph - N/A   Unknown
8:52 AM 24.1 °F 12.5 °F 17.1 °F 75% 30.34 in - NW 12.7 mph - N/A   Unknown
9:52 AM 25.0 °F 12.2 °F 19.9 °F 81% 30.36 in - NNW 16.1 mph 20.7 mph N/A   Unknown
10:52 AM 24.1 °F 10.1 °F 18.0 °F 77% 30.39 in - NNW 18.4 mph 23.0 mph N/A   Unknown
11:52 AM 24.1 °F 11.5 °F 15.1 °F 69% 30.41 in - NNW 15.0 mph - N/A   Unknown
12:52 PM 24.1 °F 12.5 °F 18.0 °F 77% 30.42 in - North 12.7 mph - 0.01 in   Unknown
1:52 PM 26.1 °F 16.2 °F 16.0 °F 66% 30.41 in - North 10.4 mph - N/A   Unknown
2:52 PM 25.0 °F 12.2 °F 15.1 °F 66% 30.41 in - North 16.1 mph - N/A   Unknown
3:52 PM 24.1 °F 12.5 °F 12.9 °F 62% 30.43 in - North 12.7 mph 20.7 mph N/A   Unknown
4:52 PM 23.0 °F 12.4 °F 12.9 °F 65% 30.44 in - North 10.4 mph - N/A   Unknown
5:52 PM 19.9 °F 14.9 °F 10.9 °F 68% 30.43 in - NE 3.5 mph - N/A   Unknown
6:52 PM 15.1 °F - 10.0 °F 80% 30.43 in - Calm Calm - N/A   Unknown
7:52 PM 14.0 °F - 9.0 °F 80% 30.41 in - Calm Calm - N/A   Unknown
8:52 PM 10.9 °F 0.2 °F 7.0 °F 84% 30.39 in - South 6.9 mph - N/A   Unknown
9:52 PM 10.0 °F -0.9 °F 5.0 °F 80% 30.38 in - South 6.9 mph - N/A   Unknown
10:52 PM 12.0 °F 1.5 °F 8.1 °F 84% 30.35 in - SSW 6.9 mph - N/A   Unknown
11:52 PM 12.0 °F 0.5 °F 7.0 °F 80% 30.32 in - SSW 8.1 mph - N/A   Unknown